最新 今天 统计 地图 地球 设置 关于

今天收到的 9A3XK 507 APRS数据包 下载轨迹 aprs.fi hamclub hellocq 本站 本站轨迹

时间msgraw packet
2020-01-26 17:40:069A3XK>APMI06,TCPIP*,qAC,APRSFI-I1:T#200,082,043,015,23190,078,00000000
2020-01-26 17:39:339A3XK>BEACON,WIDE1-1,qAR,E79XZA-10:Power 9W Gain 3dB Height 240m Ant omni
2020-01-26 17:35:079A3XK>APMI06,TCPIP*,qAC,APRSFI-I1:T#199,080,040,014,23188,078,00000000
2020-01-26 17:32:089A3XK>APMI06,WIDE1-1,qAR,E79XZA-10:T#198,079,039,018,23191,078,00000000
2020-01-26 17:30:079A3XK>APMI06,TCPIP*,qAC,APRSFI-I1:T#197,073,039,016,23191,078,00000000
2020-01-26 17:29:329A3XK>BEACON,TCPIP*,qAC,APRSFI-I1:Power 9W Gain 3dB Height 240m Ant omni
2020-01-26 17:29:229A3XK>BEACON,WIDE1-1,qAR,E79XZA-10:CRLNet.108 - SysOp 9a3XK & 9a7kxp-Internet via DJWIRELES http://djw.hr/
2020-01-26 17:29:179A3XK>APMI06,TCPIP*,qAC,APRSFI-I1:>http://crlnet.it - WX3IN1 Plus 2.0 - v1.13 - 1.9C - 12.2V
2020-01-26 17:29:12!4522.10N/01814.60EIiGate&W2 DJAKOVO CRLNet.108 http://elco.hr9A3XK>APMI06,TCPIP*,qAC,APRSFI-I1:!4522.10N/01814.60EIiGate&W2 DJAKOVO CRLNet.108 http://elco.hr
2020-01-26 17:25:079A3XK>APMI06,TCPIP*,qAC,APRSFI-I1:T#196,072,039,017,23192,078,00000000
2020-01-26 17:20:079A3XK>APMI06,TCPIP*,qAC,APRSFI-I1:T#195,074,037,018,23193,078,00000000
2020-01-26 17:19:329A3XK>BEACON,WIDE1-1,qAR,E79XZA-10:Power 9W Gain 3dB Height 240m Ant omni
2020-01-26 17:19:12!4522.10N/01814.60EIiGate&W2 DJAKOVO CRLNet.108 http://elco.hr9A3XK>APMI06,WIDE2-2,qAR,E79XZA-10:!4522.10N/01814.60EIiGate&W2 DJAKOVO CRLNet.108 http://elco.hr
2020-01-26 17:15:079A3XK>APMI06,TCPIP*,qAC,APRSFI-I1:T#194,067,037,012,23192,078,00000000
2020-01-26 17:10:079A3XK>APMI06,TCPIP*,qAC,APRSFI-I1:T#193,051,035,009,23192,078,00000000
2020-01-26 17:09:329A3XK>BEACON,WIDE1-1,qAR,E79XZA-10:Power 9W Gain 3dB Height 240m Ant omni
2020-01-26 17:05:079A3XK>APMI06,TCPIP*,qAC,APRSFI-I1:T#192,047,036,008,23195,078,00000000
2020-01-26 17:03:079A3XK>APMI06,WIDE1-1,qAR,E79XZA-10:T#191,046,037,005,23195,078,00000000
2020-01-26 17:00:079A3XK>APMI06,TCPIP*,qAC,APRSFI-I1:T#190,047,037,011,23194,078,00000000
2020-01-26 16:59:329A3XK>BEACON,TCPIP*,qAC,APRSFI-I1:Power 9W Gain 3dB Height 240m Ant omni
2020-01-26 16:59:229A3XK>BEACON,WIDE1-1,qAR,E79XZA-10:CRLNet.108 - SysOp 9a3XK & 9a7kxp-Internet via DJWIRELES http://djw.hr/
2020-01-26 16:59:179A3XK>APMI06,TCPIP*,qAC,APRSFI-I1:>http://crlnet.it - WX3IN1 Plus 2.0 - v1.13 - 1.8C - 12.2V
2020-01-26 16:59:12!4522.10N/01814.60EIiGate&W2 DJAKOVO CRLNet.108 http://elco.hr9A3XK>APMI06,TCPIP*,qAC,APRSFI-I1:!4522.10N/01814.60EIiGate&W2 DJAKOVO CRLNet.108 http://elco.hr
2020-01-26 16:55:079A3XK>APMI06,TCPIP*,qAC,APRSFI-I1:T#189,054,039,016,23197,078,00000000
2020-01-26 16:54:12!4522.10N/01814.60EIiGate&W2 DJAKOVO CRLNet.108 http://elco.hr9A3XK>APMI06,WIDE2-2,qAR,E79XZA-10:!4522.10N/01814.60EIiGate&W2 DJAKOVO CRLNet.108 http://elco.hr
2020-01-26 16:50:079A3XK>APMI06,TCPIP*,qAC,APRSFI-I1:T#188,057,041,018,23195,078,00000000
2020-01-26 16:49:329A3XK>BEACON,WIDE1-1,qAR,E79XZA-10:Power 9W Gain 3dB Height 240m Ant omni
2020-01-26 16:45:079A3XK>APMI06,TCPIP*,qAC,APRSFI-I1:T#187,054,042,013,23195,078,00000000
2020-01-26 16:40:079A3XK>APMI06,TCPIP*,qAC,APRSFI-I1:T#186,054,043,009,23190,078,00000000
2020-01-26 16:39:329A3XK>BEACON,WIDE1-1,qAR,E79XZA-10:Power 9W Gain 3dB Height 240m Ant omni
2020-01-26 16:35:079A3XK>APMI06,TCPIP*,qAC,APRSFI-I1:T#185,065,046,014,23193,078,00000000
2020-01-26 16:34:079A3XK>APMI06,WIDE1-1,qAR,E79XZA-10:T#184,068,047,015,23192,078,00000000
2020-01-26 16:30:079A3XK>APMI06,TCPIP*,qAC,APRSFI-I1:T#183,058,048,013,23194,078,00000000
2020-01-26 16:29:329A3XK>BEACON,TCPIP*,qAC,APRSFI-I1:Power 9W Gain 3dB Height 240m Ant omni
2020-01-26 16:29:229A3XK>BEACON,WIDE1-1,qAR,E79XZA-10:CRLNet.108 - SysOp 9a3XK & 9a7kxp-Internet via DJWIRELES http://djw.hr/
2020-01-26 16:29:179A3XK>APMI06,TCPIP*,qAC,APRSFI-I1:>http://crlnet.it - WX3IN1 Plus 2.0 - v1.13 - 1.8C - 12.2V
2020-01-26 16:29:12!4522.10N/01814.60EIiGate&W2 DJAKOVO CRLNet.108 http://elco.hr9A3XK>APMI06,TCPIP*,qAC,APRSFI-I1:!4522.10N/01814.60EIiGate&W2 DJAKOVO CRLNet.108 http://elco.hr
2020-01-26 16:25:079A3XK>APMI06,TCPIP*,qAC,APRSFI-I1:T#182,052,049,010,23193,078,00000000
2020-01-26 16:20:079A3XK>APMI06,TCPIP*,qAC,APRSFI-I1:T#181,052,050,012,23194,078,00000000
2020-01-26 16:19:329A3XK>BEACON,WIDE1-1,qAR,E79XZA-10:Power 9W Gain 3dB Height 240m Ant omni
2020-01-26 16:15:079A3XK>APMI06,TCPIP*,qAC,APRSFI-I1:T#180,060,052,013,23195,078,00000000
2020-01-26 16:10:079A3XK>APMI06,TCPIP*,qAC,APRSFI-I1:T#179,068,053,014,23194,078,00000000
2020-01-26 16:09:329A3XK>BEACON,WIDE1-1,qAR,E79XZA-10:Power 9W Gain 3dB Height 240m Ant omni
2020-01-26 16:05:079A3XK>APMI06,TCPIP*,qAC,APRSFI-I1:T#178,071,053,014,23196,078,00000000
2020-01-26 16:05:079A3XK>APMI06,WIDE1-1,qAR,E79XZA-10:T#177,071,053,014,23196,078,00000000
2020-01-26 16:04:12!4522.10N/01814.60EIiGate&W2 DJAKOVO CRLNet.108 http://elco.hr9A3XK>APMI06,WIDE2-2,qAR,E79XZA-10:!4522.10N/01814.60EIiGate&W2 DJAKOVO CRLNet.108 http://elco.hr
2020-01-26 16:00:079A3XK>APMI06,TCPIP*,qAC,APRSFI-I1:T#176,081,052,017,23195,078,00000000
2020-01-26 15:59:329A3XK>BEACON,TCPIP*,qAC,APRSFI-I1:Power 9W Gain 3dB Height 240m Ant omni
2020-01-26 15:59:229A3XK>BEACON,WIDE1-1,qAR,E79XZA-10:CRLNet.108 - SysOp 9a3XK & 9a7kxp-Internet via DJWIRELES http://djw.hr/
2020-01-26 15:59:179A3XK>APMI06,TCPIP*,qAC,APRSFI-I1:>http://crlnet.it - WX3IN1 Plus 2.0 - v1.13 - 1.7C - 12.2V
2020-01-26 15:59:12!4522.10N/01814.60EIiGate&W2 DJAKOVO CRLNet.108 http://elco.hr9A3XK>APMI06,TCPIP*,qAC,APRSFI-I1:!4522.10N/01814.60EIiGate&W2 DJAKOVO CRLNet.108 http://elco.hr
2020-01-26 15:55:079A3XK>APMI06,TCPIP*,qAC,APRSFI-I1:T#175,082,052,030,23197,078,00000000
2020-01-26 15:50:079A3XK>APMI06,TCPIP*,qAC,APRSFI-I1:T#174,076,049,031,23197,078,00000000
2020-01-26 15:49:369A3XK>BEACON,YU0XFG-1*,WIDE1*,qAR,YU0XBV-1:Power 9W Gain 3dB Height 240m Ant omni
2020-01-26 15:45:079A3XK>APMI06,TCPIP*,qAC,APRSFI-I1:T#173,095,050,029,23189,078,00000000
2020-01-26 15:40:079A3XK>APMI06,TCPIP*,qAC,APRSFI-I1:T#172,101,049,031,23183,078,00000000
2020-01-26 15:39:339A3XK>BEACON,WIDE1-1,qAR,E79XZA-10:Power 9W Gain 3dB Height 240m Ant omni
2020-01-26 15:39:12!4522.10N/01814.60EIiGate&W2 DJAKOVO CRLNet.108 http://elco.hr9A3XK>APMI06,WIDE2-2,qAR,E79XZA-10:!4522.10N/01814.60EIiGate&W2 DJAKOVO CRLNet.108 http://elco.hr
2020-01-26 15:36:089A3XK>APMI06,WIDE1-1,qAR,E79XZA-10:T#171,093,047,032,23180,078,00000000
2020-01-26 15:35:079A3XK>APMI06,TCPIP*,qAC,APRSFI-I1:T#170,093,046,034,23182,078,00000000
2020-01-26 15:30:079A3XK>APMI06,TCPIP*,qAC,APRSFI-I1:T#169,077,044,031,23177,078,00000000
2020-01-26 15:29:329A3XK>BEACON,TCPIP*,qAC,APRSFI-I1:Power 9W Gain 3dB Height 240m Ant omni
2020-01-26 15:29:229A3XK>BEACON,WIDE1-1,qAR,E79XZA-10:CRLNet.108 - SysOp 9a3XK & 9a7kxp-Internet via DJWIRELES http://djw.hr/
2020-01-26 15:29:179A3XK>APMI06,TCPIP*,qAC,APRSFI-I1:>http://crlnet.it - WX3IN1 Plus 2.0 - v1.13 - 1.7C - 12.2V
2020-01-26 15:29:12!4522.10N/01814.60EIiGate&W2 DJAKOVO CRLNet.108 http://elco.hr9A3XK>APMI06,TCPIP*,qAC,APRSFI-I1:!4522.10N/01814.60EIiGate&W2 DJAKOVO CRLNet.108 http://elco.hr
2020-01-26 15:25:079A3XK>APMI06,TCPIP*,qAC,APRSFI-I1:T#168,073,045,022,23171,078,00000000
2020-01-26 15:20:079A3XK>APMI06,TCPIP*,qAC,APRSFI-I1:T#167,080,043,022,23168,078,00000000
2020-01-26 15:19:339A3XK>BEACON,WIDE1-1,qAR,E79XZA-10:Power 9W Gain 3dB Height 240m Ant omni
2020-01-26 15:15:079A3XK>APMI06,TCPIP*,qAC,APRSFI-I1:T#166,074,042,018,23164,078,00000000
2020-01-26 15:14:12!4522.10N/01814.60EIiGate&W2 DJAKOVO CRLNet.108 http://elco.hr9A3XK>APMI06,WIDE2-2,qAR,E79XZA-10:!4522.10N/01814.60EIiGate&W2 DJAKOVO CRLNet.108 http://elco.hr
2020-01-26 15:10:079A3XK>APMI06,TCPIP*,qAC,APRSFI-I1:T#165,056,042,014,23163,078,00000000
2020-01-26 15:09:339A3XK>BEACON,WIDE1-1,qAR,E79XZA-10:Power 9W Gain 3dB Height 240m Ant omni
2020-01-26 15:07:079A3XK>APMI06,WIDE1-1,qAR,E79XZA-10:T#164,061,042,013,23162,078,00000000
2020-01-26 15:05:079A3XK>APMI06,TCPIP*,qAC,APRSFI-I1:T#163,062,042,011,23162,078,00000000
2020-01-26 15:00:079A3XK>APMI06,TCPIP*,qAC,APRSFI-I1:T#162,054,043,010,23163,078,00000000
2020-01-26 14:59:329A3XK>BEACON,TCPIP*,qAC,APRSFI-I1:Power 9W Gain 3dB Height 240m Ant omni
2020-01-26 14:59:229A3XK>BEACON,WIDE1-1,qAR,E79XZA-10:CRLNet.108 - SysOp 9a3XK & 9a7kxp-Internet via DJWIRELES http://djw.hr/
2020-01-26 14:59:179A3XK>APMI06,TCPIP*,qAC,APRSFI-I1:>http://crlnet.it - WX3IN1 Plus 2.0 - v1.13 - 1.6C - 12.2V
2020-01-26 14:59:12!4522.10N/01814.60EIiGate&W2 DJAKOVO CRLNet.108 http://elco.hr9A3XK>APMI06,TCPIP*,qAC,APRSFI-I1:!4522.10N/01814.60EIiGate&W2 DJAKOVO CRLNet.108 http://elco.hr
2020-01-26 14:55:079A3XK>APMI06,TCPIP*,qAC,APRSFI-I1:T#161,068,044,017,23165,078,00000000
2020-01-26 14:50:079A3XK>APMI06,TCPIP*,qAC,APRSFI-I1:T#160,077,046,022,23166,078,00000000
2020-01-26 14:49:339A3XK>BEACON,WIDE1-1,qAR,E79XZA-10:Power 9W Gain 3dB Height 240m Ant omni
2020-01-26 14:49:12!4522.10N/01814.60EIiGate&W2 DJAKOVO CRLNet.108 http://elco.hr9A3XK>APMI06,WIDE2-2,qAR,E79XZA-10:!4522.10N/01814.60EIiGate&W2 DJAKOVO CRLNet.108 http://elco.hr
2020-01-26 14:45:079A3XK>APMI06,TCPIP*,qAC,APRSFI-I1:T#159,056,044,011,23164,078,00000000
2020-01-26 14:40:079A3XK>APMI06,TCPIP*,qAC,APRSFI-I1:T#158,060,045,012,23163,078,00000000
2020-01-26 14:39:339A3XK>BEACON,WIDE1-1,qAR,E79XZA-10:Power 9W Gain 3dB Height 240m Ant omni
2020-01-26 14:38:089A3XK>APMI06,WIDE1-1,qAR,E79XZA-10:T#157,070,045,013,23164,078,00000000
2020-01-26 14:35:079A3XK>APMI06,TCPIP*,qAC,APRSFI-I1:T#156,072,045,016,23165,078,00000000
2020-01-26 14:30:079A3XK>APMI06,TCPIP*,qAC,APRSFI-I1:T#155,063,046,018,23164,078,00000000
2020-01-26 14:29:599A3XK>APMI06,WIDE1-1,qAR,E79XZA-10::9A3XK :BITS.11111111,DJAKOVO 5' Stats.
2020-01-26 14:29:599A3XK>APMI06,WIDE1-1,qAR,E79XZA-10::9A3XK :EQNS.0,1,0,0,10,0,0,1,0,0,0.001,0,0,1,0
2020-01-26 14:29:589A3XK>APMI06,WIDE1-1,qAR,E79XZA-10::9A3XK :UNIT.Pkt,Pkt,Pkt,Pcnt,Pcnt,On,On,On,On,Hi,Hi,Hi,Hi
2020-01-26 14:29:579A3XK>APMI06,WIDE1-1,qAR,E79XZA-10::9A3XK :PARM.Rx10m,Rx1h,Dg10m,DgR,Eff,O1,O2,O3,O4,I1,I2,I3,I4
2020-01-26 14:29:329A3XK>BEACON,TCPIP*,qAC,APRSFI-I1:Power 9W Gain 3dB Height 240m Ant omni
2020-01-26 14:29:239A3XK>BEACON,WIDE1-1,qAR,E79XZA-10:CRLNet.108 - SysOp 9a3XK & 9a7kxp-Internet via DJWIRELES http://djw.hr/
2020-01-26 14:29:179A3XK>APMI06,TCPIP*,qAC,APRSFI-I1:>http://crlnet.it - WX3IN1 Plus 2.0 - v1.13 - 1.6C - 12.2V
2020-01-26 14:29:12!4522.10N/01814.60EIiGate&W2 DJAKOVO CRLNet.108 http://elco.hr9A3XK>APMI06,TCPIP*,qAC,APRSFI-I1:!4522.10N/01814.60EIiGate&W2 DJAKOVO CRLNet.108 http://elco.hr
2020-01-26 14:25:079A3XK>APMI06,TCPIP*,qAC,APRSFI-I1:T#154,054,047,017,23165,078,00000000
2020-01-26 14:24:13!4522.10N/01814.60EIiGate&W2 DJAKOVO CRLNet.108 http://elco.hr9A3XK>APMI06,WIDE2-2,qAR,E79XZA-10:!4522.10N/01814.60EIiGate&W2 DJAKOVO CRLNet.108 http://elco.hr
2020-01-26 14:20:079A3XK>APMI06,TCPIP*,qAC,APRSFI-I1:T#153,068,048,022,23163,078,00000000
2020-01-26 14:19:339A3XK>BEACON,WIDE1-1,qAR,E79XZA-10:Power 9W Gain 3dB Height 240m Ant omni
2020-01-26 14:15:079A3XK>APMI06,TCPIP*,qAC,APRSFI-I1:T#152,071,050,023,23160,078,00000000
2020-01-26 14:10:079A3XK>APMI06,TCPIP*,qAC,APRSFI-I1:T#151,071,052,026,23157,078,00000000
2020-01-26 14:09:339A3XK>BEACON,WIDE1-1,qAR,E79XZA-10:Power 9W Gain 3dB Height 240m Ant omni
2020-01-26 14:09:079A3XK>APMI06,WIDE1-1,qAR,E79XZA-10:T#150,084,053,028,23158,078,00000000
2020-01-26 14:05:079A3XK>APMI06,TCPIP*,qAC,APRSFI-I1:T#149,079,053,024,23152,078,00000000
2020-01-26 14:00:079A3XK>APMI06,TCPIP*,qAC,APRSFI-I1:T#148,073,051,028,23149,078,00000000
2020-01-26 13:59:329A3XK>BEACON,TCPIP*,qAC,APRSFI-I1:Power 9W Gain 3dB Height 240m Ant omni
2020-01-26 13:59:239A3XK>BEACON,WIDE1-1,qAR,E79XZA-10:CRLNet.108 - SysOp 9a3XK & 9a7kxp-Internet via DJWIRELES http://djw.hr/
2020-01-26 13:59:179A3XK>APMI06,TCPIP*,qAC,APRSFI-I1:>http://crlnet.it - WX3IN1 Plus 2.0 - v1.13 - 1.6C - 12.2V
2020-01-26 13:59:12!4522.10N/01814.60EIiGate&W2 DJAKOVO CRLNet.108 http://elco.hr9A3XK>APMI06,TCPIP*,qAC,APRSFI-I1:!4522.10N/01814.60EIiGate&W2 DJAKOVO CRLNet.108 http://elco.hr
2020-01-26 13:55:079A3XK>APMI06,TCPIP*,qAC,APRSFI-I1:T#147,072,050,026,23146,078,00000000
2020-01-26 13:50:079A3XK>APMI06,TCPIP*,qAC,APRSFI-I1:T#146,064,049,021,23141,078,00000000
2020-01-26 13:49:349A3XK>BEACON,WIDE1-1,qAR,E79XZA-10:Power 9W Gain 3dB Height 240m Ant omni
2020-01-26 13:45:079A3XK>APMI06,TCPIP*,qAC,APRSFI-I1:T#145,070,050,019,23137,078,00000000
2020-01-26 13:40:079A3XK>APMI06,WIDE1-1,qAR,E79XZA-10:T#143,075,051,024,23136,078,00000000
2020-01-26 13:40:079A3XK>APMI06,TCPIP*,qAC,APRSFI-I1:T#144,075,051,024,23136,078,00000000
2020-01-26 13:39:339A3XK>BEACON,WIDE1-1,qAR,E79XZA-10:Power 9W Gain 3dB Height 240m Ant omni
2020-01-26 13:35:079A3XK>APMI06,TCPIP*,qAC,APRSFI-I1:T#142,094,052,032,23135,078,00000000
2020-01-26 13:30:079A3XK>APMI06,TCPIP*,qAC,APRSFI-I1:T#141,075,050,024,23131,078,00000000
2020-01-26 13:29:329A3XK>BEACON,TCPIP*,qAC,APRSFI-I1:Power 9W Gain 3dB Height 240m Ant omni
2020-01-26 13:29:239A3XK>BEACON,WIDE1-1,qAR,E79XZA-10:CRLNet.108 - SysOp 9a3XK & 9a7kxp-Internet via DJWIRELES http://djw.hr/
2020-01-26 13:29:179A3XK>APMI06,TCPIP*,qAC,APRSFI-I1:>http://crlnet.it - WX3IN1 Plus 2.0 - v1.13 - 1.6C - 12.2V
2020-01-26 13:29:12!4522.10N/01814.60EIiGate&W2 DJAKOVO CRLNet.108 http://elco.hr9A3XK>APMI06,TCPIP*,qAC,APRSFI-I1:!4522.10N/01814.60EIiGate&W2 DJAKOVO CRLNet.108 http://elco.hr
2020-01-26 13:25:079A3XK>APMI06,TCPIP*,qAC,APRSFI-I1:T#140,092,050,025,23125,078,00000000
2020-01-26 13:20:099A3XK>APMI06,TCPIP*,qAC,APRSFI-I1:T#139,101,048,022,23124,078,00000000
2020-01-26 13:19:339A3XK>BEACON,WIDE1-1,qAR,E79XZA-10:Power 9W Gain 3dB Height 240m Ant omni
2020-01-26 13:15:079A3XK>APMI06,TCPIP*,qAC,APRSFI-I1:T#138,088,046,019,23122,078,00000000
2020-01-26 13:11:089A3XK>APMI06,WIDE1-1,qAR,E79XZA-10:T#137,072,045,019,23126,078,00000000
2020-01-26 13:10:079A3XK>APMI06,TCPIP*,qAC,APRSFI-I1:T#136,065,044,018,23126,078,00000000
2020-01-26 13:09:339A3XK>BEACON,WIDE1-1,qAR,E79XZA-10:Power 9W Gain 3dB Height 240m Ant omni
2020-01-26 13:09:13!4522.10N/01814.60EIiGate&W2 DJAKOVO CRLNet.108 http://elco.hr9A3XK>APMI06,WIDE2-2,qAR,E79XZA-10:!4522.10N/01814.60EIiGate&W2 DJAKOVO CRLNet.108 http://elco.hr
2020-01-26 13:05:079A3XK>APMI06,TCPIP*,qAC,APRSFI-I1:T#135,056,042,013,23124,078,00000000
2020-01-26 13:00:079A3XK>APMI06,TCPIP*,qAC,APRSFI-I1:T#134,057,041,008,23124,078,00000000
2020-01-26 12:59:329A3XK>BEACON,TCPIP*,qAC,APRSFI-I1:Power 9W Gain 3dB Height 240m Ant omni
2020-01-26 12:59:179A3XK>APMI06,TCPIP*,qAC,APRSFI-I1:>http://crlnet.it - WX3IN1 Plus 2.0 - v1.13 - 1.6C - 12.2V
2020-01-26 12:59:12!4522.10N/01814.60EIiGate&W2 DJAKOVO CRLNet.108 http://elco.hr9A3XK>APMI06,TCPIP*,qAC,APRSFI-I1:!4522.10N/01814.60EIiGate&W2 DJAKOVO CRLNet.108 http://elco.hr
2020-01-26 12:55:079A3XK>APMI06,TCPIP*,qAC,APRSFI-I1:T#133,070,041,009,23124,078,00000000
2020-01-26 12:50:079A3XK>APMI06,TCPIP*,qAC,APRSFI-I1:T#132,083,041,018,23128,078,00000000
2020-01-26 12:49:339A3XK>BEACON,WIDE1-1,qAR,E79XZA-10:Power 9W Gain 3dB Height 240m Ant omni
2020-01-26 12:45:079A3XK>APMI06,TCPIP*,qAC,APRSFI-I1:T#131,085,041,017,23130,078,00000000
2020-01-26 12:44:13!4522.10N/01814.60EIiGate&W2 DJAKOVO CRLNet.108 http://elco.hr9A3XK>APMI06,WIDE2-2,qAR,E79XZA-10:!4522.10N/01814.60EIiGate&W2 DJAKOVO CRLNet.108 http://elco.hr
2020-01-26 12:42:089A3XK>APMI06,WIDE1-1,qAR,E79XZA-10:T#130,078,039,018,23132,078,00000000
2020-01-26 12:40:079A3XK>APMI06,TCPIP*,qAC,APRSFI-I1:T#129,067,038,014,23130,078,00000000
2020-01-26 12:39:359A3XK>BEACON,E79VTR-11,WIDE1*,qAR,E79XZA-10:Power 9W Gain 3dB Height 240m Ant omni
2020-01-26 12:35:079A3XK>APMI06,TCPIP*,qAC,APRSFI-I1:T#128,068,037,016,23132,078,00000000
2020-01-26 12:30:079A3XK>APMI06,TCPIP*,qAC,APRSFI-I1:T#127,054,035,012,23131,078,00000000
2020-01-26 12:29:329A3XK>BEACON,TCPIP*,qAC,APRSFI-I1:Power 9W Gain 3dB Height 240m Ant omni
2020-01-26 12:29:239A3XK>BEACON,WIDE1-1,qAR,E79XZA-10:CRLNet.108 - SysOp 9a3XK & 9a7kxp-Internet via DJWIRELES http://djw.hr/
2020-01-26 12:29:179A3XK>APMI06,TCPIP*,qAC,APRSFI-I1:>http://crlnet.it - WX3IN1 Plus 2.0 - v1.13 - 1.6C - 12.2V
2020-01-26 12:29:12!4522.10N/01814.60EIiGate&W2 DJAKOVO CRLNet.108 http://elco.hr9A3XK>APMI06,TCPIP*,qAC,APRSFI-I1:!4522.10N/01814.60EIiGate&W2 DJAKOVO CRLNet.108 http://elco.hr
2020-01-26 12:25:079A3XK>APMI06,TCPIP*,qAC,APRSFI-I1:T#126,068,038,016,23133,078,00000000
2020-01-26 12:20:079A3XK>APMI06,TCPIP*,qAC,APRSFI-I1:T#125,067,039,018,23133,078,00000000
2020-01-26 12:19:339A3XK>BEACON,WIDE1-1,qAR,E79XZA-10:Power 9W Gain 3dB Height 240m Ant omni
2020-01-26 12:19:13!4522.10N/01814.60EIiGate&W2 DJAKOVO CRLNet.108 http://elco.hr9A3XK>APMI06,WIDE2-2,qAR,E79XZA-10:!4522.10N/01814.60EIiGate&W2 DJAKOVO CRLNet.108 http://elco.hr
2020-01-26 12:15:079A3XK>APMI06,TCPIP*,qAC,APRSFI-I1:T#124,038,037,013,23132,078,00000000
2020-01-26 12:10:079A3XK>APMI06,TCPIP*,qAC,APRSFI-I1:T#122,042,038,012,23131,078,00000000
2020-01-26 12:09:339A3XK>BEACON,WIDE1-1,qAR,E79XZA-10:Power 9W Gain 3dB Height 240m Ant omni
2020-01-26 12:05:079A3XK>APMI06,TCPIP*,qAC,APRSFI-I1:T#121,054,039,009,23128,078,00000000
2020-01-26 12:00:079A3XK>APMI06,TCPIP*,qAC,APRSFI-I1:T#120,060,041,010,23127,078,00000000
2020-01-26 11:59:329A3XK>BEACON,TCPIP*,qAC,APRSFI-I1:Power 9W Gain 3dB Height 240m Ant omni
2020-01-26 11:59:239A3XK>BEACON,WIDE1-1,qAR,E79XZA-10:CRLNet.108 - SysOp 9a3XK & 9a7kxp-Internet via DJWIRELES http://djw.hr/
2020-01-26 11:59:179A3XK>APMI06,TCPIP*,qAC,APRSFI-I1:>http://crlnet.it - WX3IN1 Plus 2.0 - v1.13 - 1.6C - 12.2V
2020-01-26 11:59:12!4522.10N/01814.60EIiGate&W2 DJAKOVO CRLNet.108 http://elco.hr9A3XK>APMI06,TCPIP*,qAC,APRSFI-I1:!4522.10N/01814.60EIiGate&W2 DJAKOVO CRLNet.108 http://elco.hr
2020-01-26 11:55:079A3XK>APMI06,TCPIP*,qAC,APRSFI-I1:T#119,066,041,016,23130,078,00000000
2020-01-26 11:54:13!4522.10N/01814.60EIiGate&W2 DJAKOVO CRLNet.108 http://elco.hr9A3XK>APMI06,WIDE2-2,qAR,E79XZA-10:!4522.10N/01814.60EIiGate&W2 DJAKOVO CRLNet.108 http://elco.hr
2020-01-26 11:50:079A3XK>APMI06,TCPIP*,qAC,APRSFI-I1:T#118,056,040,018,23132,078,00000000
2020-01-26 11:49:339A3XK>BEACON,WIDE1-1,qAR,E79XZA-10:Power 9W Gain 3dB Height 240m Ant omni
2020-01-26 11:45:079A3XK>APMI06,TCPIP*,qAC,APRSFI-I1:T#117,049,041,011,23130,078,00000000
2020-01-26 11:44:089A3XK>APMI06,WIDE1-1,qAR,E79XZA-10:T#116,048,041,011,23130,078,00000000
2020-01-26 11:40:079A3XK>APMI06,TCPIP*,qAC,APRSFI-I1:T#115,040,041,010,23128,078,00000000
2020-01-26 11:39:339A3XK>BEACON,WIDE1-1,qAR,E79XZA-10:Power 9W Gain 3dB Height 240m Ant omni
2020-01-26 11:35:079A3XK>APMI06,TCPIP*,qAC,APRSFI-I1:T#114,084,043,021,23130,078,00000000
2020-01-26 11:30:079A3XK>APMI06,TCPIP*,qAC,APRSFI-I1:T#113,075,043,015,23128,078,00000000
2020-01-26 11:29:329A3XK>BEACON,TCPIP*,qAC,APRSFI-I1:Power 9W Gain 3dB Height 240m Ant omni
2020-01-26 11:29:239A3XK>BEACON,WIDE1-1,qAR,E79XZA-10:CRLNet.108 - SysOp 9a3XK & 9a7kxp-Internet via DJWIRELES http://djw.hr/
2020-01-26 11:29:179A3XK>APMI06,TCPIP*,qAC,APRSFI-I1:>http://crlnet.it - WX3IN1 Plus 2.0 - v1.13 - 1.6C - 12.2V
2020-01-26 11:29:12!4522.10N/01814.60EIiGate&W2 DJAKOVO CRLNet.108 http://elco.hr9A3XK>APMI06,TCPIP*,qAC,APRSFI-I1:!4522.10N/01814.60EIiGate&W2 DJAKOVO CRLNet.108 http://elco.hr
2020-01-26 11:25:079A3XK>APMI06,TCPIP*,qAC,APRSFI-I1:T#112,057,041,013,23128,078,00000000
2020-01-26 11:20:079A3XK>APMI06,TCPIP*,qAC,APRSFI-I1:T#111,058,041,014,23129,078,00000000
2020-01-26 11:19:339A3XK>BEACON,WIDE1-1,qAR,E79XZA-10:Power 9W Gain 3dB Height 240m Ant omni
2020-01-26 11:15:089A3XK>APMI06,WIDE1-1,qAR,E79XZA-10:T#109,057,041,013,23129,078,00000000
2020-01-26 11:15:079A3XK>APMI06,TCPIP*,qAC,APRSFI-I1:T#110,057,041,013,23129,078,00000000
2020-01-26 11:10:079A3XK>APMI06,TCPIP*,qAC,APRSFI-I1:T#108,072,042,015,23128,078,00000000
2020-01-26 11:09:339A3XK>BEACON,WIDE1-1,qAR,E79XZA-10:Power 9W Gain 3dB Height 240m Ant omni
2020-01-26 11:05:079A3XK>APMI06,TCPIP*,qAC,APRSFI-I1:T#107,067,041,013,23129,078,00000000
2020-01-26 11:04:13!4522.10N/01814.60EIiGate&W2 DJAKOVO CRLNet.108 http://elco.hr9A3XK>APMI06,WIDE2-2,qAR,E79XZA-10:!4522.10N/01814.60EIiGate&W2 DJAKOVO CRLNet.108 http://elco.hr
2020-01-26 11:00:079A3XK>APMI06,TCPIP*,qAC,APRSFI-I1:T#106,051,040,011,23128,078,00000000
2020-01-26 10:59:329A3XK>BEACON,TCPIP*,qAC,APRSFI-I1:Power 9W Gain 3dB Height 240m Ant omni
2020-01-26 10:59:239A3XK>BEACON,WIDE1-1,qAR,E79XZA-10:CRLNet.108 - SysOp 9a3XK & 9a7kxp-Internet via DJWIRELES http://djw.hr/
2020-01-26 10:59:179A3XK>APMI06,TCPIP*,qAC,APRSFI-I1:>http://crlnet.it - WX3IN1 Plus 2.0 - v1.13 - 1.6C - 12.2V
2020-01-26 10:59:12!4522.10N/01814.60EIiGate&W2 DJAKOVO CRLNet.108 http://elco.hr9A3XK>APMI06,TCPIP*,qAC,APRSFI-I1:!4522.10N/01814.60EIiGate&W2 DJAKOVO CRLNet.108 http://elco.hr
2020-01-26 10:55:079A3XK>APMI06,TCPIP*,qAC,APRSFI-I1:T#105,063,041,017,23132,078,00000000
2020-01-26 10:50:079A3XK>APMI06,TCPIP*,qAC,APRSFI-I1:T#104,066,040,019,23131,078,00000000
2020-01-26 10:49:339A3XK>BEACON,WIDE1-1,qAR,E79XZA-10:Power 9W Gain 3dB Height 240m Ant omni
2020-01-26 10:46:089A3XK>APMI06,WIDE1-1,qAR,E79XZA-10:T#103,069,042,019,23128,078,00000000
2020-01-26 10:45:079A3XK>APMI06,TCPIP*,qAC,APRSFI-I1:T#102,071,042,017,23129,078,00000000
2020-01-26 10:40:079A3XK>APMI06,TCPIP*,qAC,APRSFI-I1:T#101,061,041,012,23126,078,00000000
2020-01-26 10:39:339A3XK>BEACON,WIDE1-1,qAR,E79XZA-10:Power 9W Gain 3dB Height 240m Ant omni
2020-01-26 10:39:13!4522.10N/01814.60EIiGate&W2 DJAKOVO CRLNet.108 http://elco.hr9A3XK>APMI06,WIDE2-2,qAR,E79XZA-10:!4522.10N/01814.60EIiGate&W2 DJAKOVO CRLNet.108 http://elco.hr
2020-01-26 10:35:079A3XK>APMI06,TCPIP*,qAC,APRSFI-I1:T#100,065,041,013,23128,078,00000000
2020-01-26 10:30:079A3XK>APMI06,TCPIP*,qAC,APRSFI-I1:T#099,058,041,012,23129,078,00000000
2020-01-26 10:29:329A3XK>BEACON,TCPIP*,qAC,APRSFI-I1:Power 9W Gain 3dB Height 240m Ant omni
2020-01-26 10:29:239A3XK>BEACON,WIDE1-1,qAR,E79XZA-10:CRLNet.108 - SysOp 9a3XK & 9a7kxp-Internet via DJWIRELES http://djw.hr/
2020-01-26 10:29:179A3XK>APMI06,TCPIP*,qAC,APRSFI-I1:>http://crlnet.it - WX3IN1 Plus 2.0 - v1.13 - 1.6C - 12.2V
2020-01-26 10:29:12!4522.10N/01814.60EIiGate&W2 DJAKOVO CRLNet.108 http://elco.hr9A3XK>APMI06,TCPIP*,qAC,APRSFI-I1:!4522.10N/01814.60EIiGate&W2 DJAKOVO CRLNet.108 http://elco.hr
2020-01-26 10:25:079A3XK>APMI06,TCPIP*,qAC,APRSFI-I1:T#098,059,041,014,23131,078,00000000
2020-01-26 10:20:079A3XK>APMI06,TCPIP*,qAC,APRSFI-I1:T#097,069,041,019,23131,078,00000000
2020-01-26 10:19:339A3XK>BEACON,WIDE1-1,qAR,E79XZA-10:Power 9W Gain 3dB Height 240m Ant omni
2020-01-26 10:17:089A3XK>APMI06,WIDE1-1,qAR,E79XZA-10:T#096,064,042,016,23129,078,00000000
2020-01-26 10:15:079A3XK>APMI06,TCPIP*,qAC,APRSFI-I1:T#095,058,042,014,23131,078,00000000
2020-01-26 10:14:13!4522.10N/01814.60EIiGate&W2 DJAKOVO CRLNet.108 http://elco.hr9A3XK>APMI06,WIDE2-2,qAR,E79XZA-10:!4522.10N/01814.60EIiGate&W2 DJAKOVO CRLNet.108 http://elco.hr
2020-01-26 10:10:079A3XK>APMI06,TCPIP*,qAC,APRSFI-I1:T#094,051,041,010,23127,078,00000000
2020-01-26 10:09:339A3XK>BEACON,WIDE1-1,qAR,E79XZA-10:Power 9W Gain 3dB Height 240m Ant omni
2020-01-26 10:05:079A3XK>APMI06,TCPIP*,qAC,APRSFI-I1:T#093,059,041,011,23130,078,00000000
2020-01-26 10:00:079A3XK>APMI06,TCPIP*,qAC,APRSFI-I1:T#092,049,039,008,23129,078,00000000
2020-01-26 09:59:329A3XK>BEACON,TCPIP*,qAC,APRSFI-I1:Power 9W Gain 3dB Height 240m Ant omni
2020-01-26 09:59:239A3XK>BEACON,WIDE1-1,qAR,E79XZA-10:CRLNet.108 - SysOp 9a3XK & 9a7kxp-Internet via DJWIRELES http://djw.hr/
2020-01-26 09:59:179A3XK>APMI06,TCPIP*,qAC,APRSFI-I1:>http://crlnet.it - WX3IN1 Plus 2.0 - v1.13 - 1.7C - 12.2V
2020-01-26 09:59:12!4522.10N/01814.60EIiGate&W2 DJAKOVO CRLNet.108 http://elco.hr9A3XK>APMI06,TCPIP*,qAC,APRSFI-I1:!4522.10N/01814.60EIiGate&W2 DJAKOVO CRLNet.108 http://elco.hr
2020-01-26 09:55:079A3XK>APMI06,TCPIP*,qAC,APRSFI-I1:T#091,075,041,017,23133,078,00000000
2020-01-26 09:50:079A3XK>APMI06,TCPIP*,qAC,APRSFI-I1:T#090,077,042,017,23133,078,00000000
2020-01-26 09:49:339A3XK>BEACON,WIDE1-1,qAR,E79XZA-10:Power 9W Gain 3dB Height 240m Ant omni
2020-01-26 09:49:13!4522.10N/01814.60EIiGate&W2 DJAKOVO CRLNet.108 http://elco.hr9A3XK>APMI06,WIDE2-2,qAR,E79XZA-10:!4522.10N/01814.60EIiGate&W2 DJAKOVO CRLNet.108 http://elco.hr
2020-01-26 09:48:089A3XK>APMI06,WIDE1-1,qAR,E79XZA-10:T#089,068,041,016,23135,078,00000000
2020-01-26 09:45:079A3XK>APMI06,TCPIP*,qAC,APRSFI-I1:T#088,055,040,010,23134,078,00000000
2020-01-26 09:40:079A3XK>APMI06,TCPIP*,qAC,APRSFI-I1:T#087,066,040,013,23134,078,00000000
2020-01-26 09:39:339A3XK>BEACON,WIDE1-1,qAR,E79XZA-10:Power 9W Gain 3dB Height 240m Ant omni
2020-01-26 09:35:079A3XK>APMI06,TCPIP*,qAC,APRSFI-I1:T#086,066,040,010,23135,078,00000000
2020-01-26 09:30:079A3XK>APMI06,TCPIP*,qAC,APRSFI-I1:T#085,060,039,011,23136,078,00000000
2020-01-26 09:29:329A3XK>BEACON,TCPIP*,qAC,APRSFI-I1:Power 9W Gain 3dB Height 240m Ant omni
2020-01-26 09:29:239A3XK>BEACON,WIDE1-1,qAR,E79XZA-10:CRLNet.108 - SysOp 9a3XK & 9a7kxp-Internet via DJWIRELES http://djw.hr/
2020-01-26 09:29:179A3XK>APMI06,TCPIP*,qAC,APRSFI-I1:>http://crlnet.it - WX3IN1 Plus 2.0 - v1.13 - 1.7C - 12.2V
2020-01-26 09:29:12!4522.10N/01814.60EIiGate&W2 DJAKOVO CRLNet.108 http://elco.hr9A3XK>APMI06,TCPIP*,qAC,APRSFI-I1:!4522.10N/01814.60EIiGate&W2 DJAKOVO CRLNet.108 http://elco.hr
2020-01-26 09:25:079A3XK>APMI06,TCPIP*,qAC,APRSFI-I1:T#084,072,040,016,23139,078,00000000
2020-01-26 09:24:13!4522.10N/01814.60EIiGate&W2 DJAKOVO CRLNet.108 http://elco.hr9A3XK>APMI06,WIDE2-2,qAR,E79XZA-10:!4522.10N/01814.60EIiGate&W2 DJAKOVO CRLNet.108 http://elco.hr
2020-01-26 09:20:079A3XK>APMI06,TCPIP*,qAC,APRSFI-I1:T#083,060,039,010,23140,078,00000000
2020-01-26 09:19:339A3XK>BEACON,WIDE1-1,qAR,E79XZA-10:Power 9W Gain 3dB Height 240m Ant omni
2020-01-26 09:19:089A3XK>APMI06,WIDE1-1,qAR,E79XZA-10:T#082,062,039,011,23139,078,00000000
2020-01-26 09:15:079A3XK>APMI06,TCPIP*,qAC,APRSFI-I1:T#081,049,039,011,23140,078,00000000
2020-01-26 09:10:079A3XK>APMI06,TCPIP*,qAC,APRSFI-I1:T#080,038,038,013,23142,078,00000000
2020-01-26 09:09:339A3XK>BEACON,WIDE1-1,qAR,E79XZA-10:Power 9W Gain 3dB Height 240m Ant omni
2020-01-26 09:05:079A3XK>APMI06,TCPIP*,qAC,APRSFI-I1:T#079,064,039,019,23140,078,00000000
2020-01-26 09:00:079A3XK>APMI06,TCPIP*,qAC,APRSFI-I1:T#078,073,039,017,23138,078,00000000
2020-01-26 08:59:329A3XK>BEACON,TCPIP*,qAC,APRSFI-I1:Power 9W Gain 3dB Height 240m Ant omni
2020-01-26 08:59:249A3XK>BEACON,WIDE1-1,qAR,E79XZA-10:CRLNet.108 - SysOp 9a3XK & 9a7kxp-Internet via DJWIRELES http://djw.hr/
2020-01-26 08:59:179A3XK>APMI06,TCPIP*,qAC,APRSFI-I1:>http://crlnet.it - WX3IN1 Plus 2.0 - v1.13 - 1.8C - 11.7V
2020-01-26 08:59:12!4522.10N/01814.60EIiGate&W2 DJAKOVO CRLNet.108 http://elco.hr9A3XK>APMI06,TCPIP*,qAC,APRSFI-I1:!4522.10N/01814.60EIiGate&W2 DJAKOVO CRLNet.108 http://elco.hr
2020-01-26 08:55:079A3XK>APMI06,TCPIP*,qAC,APRSFI-I1:T#077,068,038,014,23136,078,00000000
2020-01-26 08:50:089A3XK>APMI06,WIDE1-1,qAR,E79XZA-10:T#075,057,038,013,23138,078,00000000
2020-01-26 08:50:079A3XK>APMI06,TCPIP*,qAC,APRSFI-I1:T#076,057,038,013,23138,078,00000000
2020-01-26 08:49:339A3XK>BEACON,WIDE1-1,qAR,E79XZA-10:Power 9W Gain 3dB Height 240m Ant omni
2020-01-26 08:45:079A3XK>APMI06,TCPIP*,qAC,APRSFI-I1:T#074,056,039,009,23138,078,00000000
2020-01-26 08:40:079A3XK>APMI06,TCPIP*,qAC,APRSFI-I1:T#073,064,039,013,23138,078,00000000
2020-01-26 08:39:339A3XK>BEACON,WIDE1-1,qAR,E79XZA-10:Power 9W Gain 3dB Height 240m Ant omni
2020-01-26 08:35:079A3XK>APMI06,TCPIP*,qAC,APRSFI-I1:T#072,071,039,012,23141,078,00000000
2020-01-26 08:34:13!4522.10N/01814.60EIiGate&W2 DJAKOVO CRLNet.108 http://elco.hr9A3XK>APMI06,WIDE2-2,qAR,E79XZA-10:!4522.10N/01814.60EIiGate&W2 DJAKOVO CRLNet.108 http://elco.hr
2020-01-26 08:30:079A3XK>APMI06,TCPIP*,qAC,APRSFI-I1:T#071,050,039,010,23140,078,00000000
2020-01-26 08:30:009A3XK>APMI06,WIDE1-1,qAR,E79XZA-10::9A3XK :BITS.11111111,DJAKOVO 5' Stats.
2020-01-26 08:29:599A3XK>APMI06,WIDE1-1,qAR,E79XZA-10::9A3XK :UNIT.Pkt,Pkt,Pkt,Pcnt,Pcnt,On,On,On,On,Hi,Hi,Hi,Hi
2020-01-26 08:29:599A3XK>APMI06,WIDE1-1,qAR,E79XZA-10::9A3XK :EQNS.0,1,0,0,10,0,0,1,0,0,0.001,0,0,1,0
2020-01-26 08:29:589A3XK>APMI06,WIDE1-1,qAR,E79XZA-10::9A3XK :PARM.Rx10m,Rx1h,Dg10m,DgR,Eff,O1,O2,O3,O4,I1,I2,I3,I4
2020-01-26 08:29:329A3XK>BEACON,TCPIP*,qAC,APRSFI-I1:Power 9W Gain 3dB Height 240m Ant omni
2020-01-26 08:29:249A3XK>BEACON,WIDE1-1,qAR,E79XZA-10:CRLNet.108 - SysOp 9a3XK & 9a7kxp-Internet via DJWIRELES http://djw.hr/
2020-01-26 08:29:179A3XK>APMI06,TCPIP*,qAC,APRSFI-I1:>http://crlnet.it - WX3IN1 Plus 2.0 - v1.13 - 1.8C - 12.2V
2020-01-26 08:29:12!4522.10N/01814.60EIiGate&W2 DJAKOVO CRLNet.108 http://elco.hr9A3XK>APMI06,TCPIP*,qAC,APRSFI-I1:!4522.10N/01814.60EIiGate&W2 DJAKOVO CRLNet.108 http://elco.hr
2020-01-26 08:25:089A3XK>APMI06,TCPIP*,qAC,APRSFI-I1:T#070,057,039,014,23145,078,00000000
2020-01-26 08:21:089A3XK>APMI06,WIDE1-1,qAR,E79XZA-10:T#069,056,040,013,23144,078,00000000
2020-01-26 08:20:079A3XK>APMI06,TCPIP*,qAC,APRSFI-I1:T#068,052,040,014,23144,078,00000000
2020-01-26 08:19:339A3XK>BEACON,WIDE1-1,qAR,E79XZA-10:Power 9W Gain 3dB Height 240m Ant omni
2020-01-26 08:15:079A3XK>APMI06,TCPIP*,qAC,APRSFI-I1:T#067,049,042,011,23144,078,00000000
2020-01-26 08:10:079A3XK>APMI06,TCPIP*,qAC,APRSFI-I1:T#066,057,043,010,23143,078,00000000
2020-01-26 08:09:339A3XK>BEACON,WIDE1-1,qAR,E79XZA-10:Power 9W Gain 3dB Height 240m Ant omni
2020-01-26 08:09:13!4522.10N/01814.60EIiGate&W2 DJAKOVO CRLNet.108 http://elco.hr9A3XK>APMI06,WIDE2-2,qAR,E79XZA-10:!4522.10N/01814.60EIiGate&W2 DJAKOVO CRLNet.108 http://elco.hr
2020-01-26 08:05:079A3XK>APMI06,TCPIP*,qAC,APRSFI-I1:T#065,054,042,012,23144,078,00000000
2020-01-26 08:00:079A3XK>APMI06,TCPIP*,qAC,APRSFI-I1:T#064,054,041,010,23145,078,00000000
2020-01-26 07:59:329A3XK>BEACON,TCPIP*,qAC,APRSFI-I1:Power 9W Gain 3dB Height 240m Ant omni
2020-01-26 07:59:259A3XK>BEACON,YU0XFG-1*,WIDE1*,qAR,YU0XBV-1:CRLNet.108 - SysOp 9a3XK & 9a7kxp-Internet via DJWIRELES http://djw.hr/
2020-01-26 07:59:179A3XK>APMI06,TCPIP*,qAC,APRSFI-I1:>http://crlnet.it - WX3IN1 Plus 2.0 - v1.13 - 1.8C - 12.2V
2020-01-26 07:59:12!4522.10N/01814.60EIiGate&W2 DJAKOVO CRLNet.108 http://elco.hr9A3XK>APMI06,TCPIP*,qAC,APRSFI-I1:!4522.10N/01814.60EIiGate&W2 DJAKOVO CRLNet.108 http://elco.hr
2020-01-26 07:55:079A3XK>APMI06,TCPIP*,qAC,APRSFI-I1:T#063,068,042,011,23145,078,00000000
2020-01-26 07:52:089A3XK>APMI06,WIDE1-1,qAR,E79XZA-10:T#062,069,043,010,23146,078,00000000
2020-01-26 07:50:079A3XK>APMI06,TCPIP*,qAC,APRSFI-I1:T#061,069,043,013,23147,078,00000000
2020-01-26 07:49:339A3XK>BEACON,WIDE1-1,qAR,E79XZA-10:Power 9W Gain 3dB Height 240m Ant omni
2020-01-26 07:45:079A3XK>APMI06,TCPIP*,qAC,APRSFI-I1:T#060,063,042,013,23150,078,00000000
2020-01-26 07:44:13!4522.10N/01814.60EIiGate&W2 DJAKOVO CRLNet.108 http://elco.hr9A3XK>APMI06,WIDE2-2,qAR,E79XZA-10:!4522.10N/01814.60EIiGate&W2 DJAKOVO CRLNet.108 http://elco.hr
2020-01-26 07:40:079A3XK>APMI06,TCPIP*,qAC,APRSFI-I1:T#059,070,041,018,23151,078,00000000
2020-01-26 07:39:339A3XK>BEACON,WIDE1-1,qAR,E79XZA-10:Power 9W Gain 3dB Height 240m Ant omni
2020-01-26 07:35:079A3XK>APMI06,TCPIP*,qAC,APRSFI-I1:T#058,070,040,016,23152,078,00000000
2020-01-26 07:30:079A3XK>APMI06,TCPIP*,qAC,APRSFI-I1:T#057,055,038,013,23149,078,00000000
2020-01-26 07:29:339A3XK>BEACON,TCPIP*,qAC,APRSFI-I1:Power 9W Gain 3dB Height 240m Ant omni
2020-01-26 07:29:259A3XK>BEACON,WIDE1-1,qAR,E79XZA-10:CRLNet.108 - SysOp 9a3XK & 9a7kxp-Internet via DJWIRELES http://djw.hr/
2020-01-26 07:29:179A3XK>APMI06,TCPIP*,qAC,APRSFI-I1:>http://crlnet.it - WX3IN1 Plus 2.0 - v1.13 - 1.8C - 12.2V
2020-01-26 07:29:13!4522.10N/01814.60EIiGate&W2 DJAKOVO CRLNet.108 http://elco.hr9A3XK>APMI06,TCPIP*,qAC,APRSFI-I1:!4522.10N/01814.60EIiGate&W2 DJAKOVO CRLNet.108 http://elco.hr
2020-01-26 07:25:089A3XK>APMI06,TCPIP*,qAC,APRSFI-I1:T#056,085,039,022,23151,078,00000000
2020-01-26 07:23:089A3XK>APMI06,WIDE1-1,qAR,E79XZA-10:T#055,082,039,020,23151,078,00000000
2020-01-26 07:20:079A3XK>APMI06,TCPIP*,qAC,APRSFI-I1:T#054,076,038,020,23150,078,00000000
2020-01-26 07:19:339A3XK>BEACON,WIDE1-1,qAR,E79XZA-10:Power 9W Gain 3dB Height 240m Ant omni
2020-01-26 07:19:14!4522.10N/01814.60EIiGate&W2 DJAKOVO CRLNet.108 http://elco.hr9A3XK>APMI06,WIDE2-2,qAR,E79XZA-10:!4522.10N/01814.60EIiGate&W2 DJAKOVO CRLNet.108 http://elco.hr
2020-01-26 07:15:079A3XK>APMI06,TCPIP*,qAC,APRSFI-I1:T#053,046,037,007,23148,078,00000000
2020-01-26 07:10:079A3XK>APMI06,TCPIP*,qAC,APRSFI-I1:T#052,045,037,008,23149,078,00000000
2020-01-26 07:09:339A3XK>BEACON,WIDE1-1,qAR,E79XZA-10:Power 9W Gain 3dB Height 240m Ant omni
2020-01-26 07:05:079A3XK>APMI06,TCPIP*,qAC,APRSFI-I1:T#051,063,038,014,23152,078,00000000
2020-01-26 07:00:079A3XK>APMI06,TCPIP*,qAC,APRSFI-I1:T#050,075,038,019,23152,078,00000000
2020-01-26 06:59:339A3XK>BEACON,TCPIP*,qAC,APRSFI-I1:Power 9W Gain 3dB Height 240m Ant omni
2020-01-26 06:59:249A3XK>BEACON,WIDE1-1,qAR,E79XZA-10:CRLNet.108 - SysOp 9a3XK & 9a7kxp-Internet via DJWIRELES http://djw.hr/
2020-01-26 06:59:189A3XK>APMI06,TCPIP*,qAC,APRSFI-I1:>http://crlnet.it - WX3IN1 Plus 2.0 - v1.13 - 1.9C - 12.2V
2020-01-26 06:59:12!4522.10N/01814.60EIiGate&W2 DJAKOVO CRLNet.108 http://elco.hr9A3XK>APMI06,TCPIP*,qAC,APRSFI-I1:!4522.10N/01814.60EIiGate&W2 DJAKOVO CRLNet.108 http://elco.hr
2020-01-26 06:55:089A3XK>APMI06,TCPIP*,qAC,APRSFI-I1:T#049,061,037,016,23152,078,00000000
2020-01-26 06:54:13!4522.10N/01814.60EIiGate&W2 DJAKOVO CRLNet.108 http://elco.hr9A3XK>APMI06,WIDE2-2,qAR,E79XZA-10:!4522.10N/01814.60EIiGate&W2 DJAKOVO CRLNet.108 http://elco.hr
2020-01-26 06:54:089A3XK>APMI06,WIDE1-1,qAR,E79XZA-10:T#048,055,037,015,23152,078,00000000
2020-01-26 06:50:079A3XK>APMI06,TCPIP*,qAC,APRSFI-I1:T#047,049,036,011,23151,078,00000000
2020-01-26 06:49:339A3XK>BEACON,WIDE1-1,qAR,E79XZA-10:Power 9W Gain 3dB Height 240m Ant omni
2020-01-26 06:45:079A3XK>APMI06,TCPIP*,qAC,APRSFI-I1:T#046,052,035,011,23151,078,00000000
2020-01-26 06:40:089A3XK>APMI06,TCPIP*,qAC,APRSFI-I1:T#045,056,035,012,23151,078,00000000
2020-01-26 06:39:339A3XK>BEACON,WIDE1-1,qAR,E79XZA-10:Power 9W Gain 3dB Height 240m Ant omni
2020-01-26 06:35:089A3XK>APMI06,TCPIP*,qAC,APRSFI-I1:T#044,053,037,014,23151,078,00000000
2020-01-26 06:30:089A3XK>APMI06,TCPIP*,qAC,APRSFI-I1:T#043,057,038,018,23152,078,00000000
2020-01-26 06:29:339A3XK>BEACON,TCPIP*,qAC,APRSFI-I1:Power 9W Gain 3dB Height 240m Ant omni
2020-01-26 06:29:259A3XK>BEACON,YU0XFG-1*,WIDE1*,qAR,YU0XBV-1:CRLNet.108 - SysOp 9a3XK & 9a7kxp-Internet via DJWIRELES http://djw.hr/
2020-01-26 06:29:189A3XK>APMI06,TCPIP*,qAC,APRSFI-I1:>http://crlnet.it - WX3IN1 Plus 2.0 - v1.13 - 1.9C - 12.2V
2020-01-26 06:29:13!4522.10N/01814.60EIiGate&W2 DJAKOVO CRLNet.108 http://elco.hr9A3XK>APMI06,TCPIP*,qAC,APRSFI-I1:!4522.10N/01814.60EIiGate&W2 DJAKOVO CRLNet.108 http://elco.hr
2020-01-26 06:25:089A3XK>APMI06,TCPIP*,qAC,APRSFI-I1:T#042,057,038,019,23149,078,00000000
2020-01-26 06:25:089A3XK>APMI06,WIDE1-1,qAR,E79XZA-10:T#041,057,038,019,23149,078,00000000
2020-01-26 06:20:089A3XK>APMI06,TCPIP*,qAC,APRSFI-I1:T#040,066,038,019,23147,078,00000000
2020-01-26 06:19:339A3XK>BEACON,WIDE1-1,qAR,E79XZA-10:Power 9W Gain 3dB Height 240m Ant omni
2020-01-26 06:15:089A3XK>APMI06,TCPIP*,qAC,APRSFI-I1:T#039,060,038,012,23144,078,00000000
2020-01-26 06:10:089A3XK>APMI06,TCPIP*,qAC,APRSFI-I1:T#038,060,039,014,23142,078,00000000
2020-01-26 06:09:339A3XK>BEACON,WIDE1-1,qAR,E79XZA-10:Power 9W Gain 3dB Height 240m Ant omni
2020-01-26 06:05:089A3XK>APMI06,TCPIP*,qAC,APRSFI-I1:T#037,053,037,014,23144,078,00000000
2020-01-26 06:04:13!4522.10N/01814.60EIiGate&W2 DJAKOVO CRLNet.108 http://elco.hr9A3XK>APMI06,WIDE2-2,qAR,E79XZA-10:!4522.10N/01814.60EIiGate&W2 DJAKOVO CRLNet.108 http://elco.hr
2020-01-26 06:00:089A3XK>APMI06,TCPIP*,qAC,APRSFI-I1:T#036,051,038,013,23142,078,00000000
2020-01-26 05:59:339A3XK>BEACON,TCPIP*,qAC,APRSFI-I1:Power 9W Gain 3dB Height 240m Ant omni
2020-01-26 05:59:259A3XK>BEACON,WIDE1-1,qAR,E79XZA-10:CRLNet.108 - SysOp 9a3XK & 9a7kxp-Internet via DJWIRELES http://djw.hr/
2020-01-26 05:59:189A3XK>APMI06,TCPIP*,qAC,APRSFI-I1:>http://crlnet.it - WX3IN1 Plus 2.0 - v1.13 - 2.0C - 12.2V
2020-01-26 05:59:13!4522.10N/01814.60EIiGate&W2 DJAKOVO CRLNet.108 http://elco.hr9A3XK>APMI06,TCPIP*,qAC,APRSFI-I1:!4522.10N/01814.60EIiGate&W2 DJAKOVO CRLNet.108 http://elco.hr
2020-01-26 05:56:089A3XK>APMI06,WIDE1-1,qAR,E79XZA-10:T#035,039,041,011,23143,078,00000000
2020-01-26 05:55:089A3XK>APMI06,TCPIP*,qAC,APRSFI-I1:T#034,035,042,009,23142,078,00000000
2020-01-26 05:50:089A3XK>APMI06,TCPIP*,qAC,APRSFI-I1:T#033,041,043,010,23141,078,00000000
2020-01-26 05:49:349A3XK>BEACON,WIDE1-1,qAR,E79XZA-10:Power 9W Gain 3dB Height 240m Ant omni
2020-01-26 05:45:089A3XK>APMI06,TCPIP*,qAC,APRSFI-I1:T#032,073,047,017,23139,078,00000000
2020-01-26 05:40:089A3XK>APMI06,TCPIP*,qAC,APRSFI-I1:T#031,079,047,019,23140,078,00000000
2020-01-26 05:39:349A3XK>BEACON,WIDE1-1,qAR,E79XZA-10:Power 9W Gain 3dB Height 240m Ant omni
2020-01-26 05:39:13!4522.10N/01814.60EIiGate&W2 DJAKOVO CRLNet.108 http://elco.hr9A3XK>APMI06,WIDE2-2,qAR,HG2PKB-1:!4522.10N/01814.60EIiGate&W2 DJAKOVO CRLNet.108 http://elco.hr
2020-01-26 05:35:089A3XK>APMI06,TCPIP*,qAC,APRSFI-I1:T#030,068,047,012,23139,078,00000000
2020-01-26 05:30:089A3XK>APMI06,TCPIP*,qAC,APRSFI-I1:T#029,058,047,013,23140,078,00000000
2020-01-26 05:29:339A3XK>BEACON,TCPIP*,qAC,APRSFI-I1:Power 9W Gain 3dB Height 240m Ant omni
2020-01-26 05:29:249A3XK>BEACON,WIDE1-1,qAR,E79XZA-10:CRLNet.108 - SysOp 9a3XK & 9a7kxp-Internet via DJWIRELES http://djw.hr/
2020-01-26 05:29:189A3XK>APMI06,TCPIP*,qAC,APRSFI-I1:>http://crlnet.it - WX3IN1 Plus 2.0 - v1.13 - 2.0C - 12.2V
2020-01-26 05:29:13!4522.10N/01814.60EIiGate&W2 DJAKOVO CRLNet.108 http://elco.hr9A3XK>APMI06,TCPIP*,qAC,APRSFI-I1:!4522.10N/01814.60EIiGate&W2 DJAKOVO CRLNet.108 http://elco.hr
2020-01-26 05:27:089A3XK>APMI06,WIDE1-1,qAR,E79XZA-10:T#028,056,047,018,23142,078,00000000
2020-01-26 05:25:089A3XK>APMI06,TCPIP*,qAC,APRSFI-I1:T#027,050,048,017,23142,078,00000000
2020-01-26 05:20:089A3XK>APMI06,TCPIP*,qAC,APRSFI-I1:T#026,069,050,025,23141,078,00000000
2020-01-26 05:19:349A3XK>BEACON,WIDE1-1,qAR,HG2PKB-1:Power 9W Gain 3dB Height 240m Ant omni
2020-01-26 05:15:089A3XK>APMI06,TCPIP*,qAC,APRSFI-I1:T#025,064,050,018,23137,078,00000000
2020-01-26 05:14:13!4522.10N/01814.60EIiGate&W2 DJAKOVO CRLNet.108 http://elco.hr9A3XK>APMI06,WIDE2-2,qAR,E79XZA-10:!4522.10N/01814.60EIiGate&W2 DJAKOVO CRLNet.108 http://elco.hr
2020-01-26 05:10:089A3XK>APMI06,TCPIP*,qAC,APRSFI-I1:T#024,054,049,016,23133,078,00000000
2020-01-26 05:09:349A3XK>BEACON,WIDE1-1,qAR,E79XZA-10:Power 9W Gain 3dB Height 240m Ant omni
2020-01-26 05:05:089A3XK>APMI06,TCPIP*,qAC,APRSFI-I1:T#023,094,048,028,23134,078,00000000
2020-01-26 05:00:089A3XK>APMI06,TCPIP*,qAC,APRSFI-I1:T#022,097,048,034,23130,078,00000000
2020-01-26 04:59:339A3XK>BEACON,TCPIP*,qAC,APRSFI-I1:Power 9W Gain 3dB Height 240m Ant omni
2020-01-26 04:59:249A3XK>BEACON,WIDE1-1,qAR,HG2PKB-1:CRLNet.108 - SysOp 9a3XK & 9a7kxp-Internet via DJWIRELES http://djw.hr/
2020-01-26 04:59:189A3XK>APMI06,TCPIP*,qAC,APRSFI-I1:>http://crlnet.it - WX3IN1 Plus 2.0 - v1.13 - 2.0C - 12.2V
2020-01-26 04:59:13!4522.10N/01814.60EIiGate&W2 DJAKOVO CRLNet.108 http://elco.hr9A3XK>APMI06,TCPIP*,qAC,APRSFI-I1:!4522.10N/01814.60EIiGate&W2 DJAKOVO CRLNet.108 http://elco.hr
2020-01-26 04:58:099A3XK>APMI06,WIDE1-1,qAR,HG2PKB-1:T#021,092,047,030,23133,078,00000000
2020-01-26 04:55:089A3XK>APMI06,TCPIP*,qAC,APRSFI-I1:T#020,084,047,023,23127,078,00000000
2020-01-26 04:50:089A3XK>APMI06,TCPIP*,qAC,APRSFI-I1:T#019,078,046,019,23121,078,00000000
2020-01-26 04:49:349A3XK>BEACON,WIDE1-1,qAR,E79XZA-10:Power 9W Gain 3dB Height 240m Ant omni
2020-01-26 04:49:14!4522.10N/01814.60EIiGate&W2 DJAKOVO CRLNet.108 http://elco.hr9A3XK>APMI06,WIDE2-2,qAR,E79XZA-10:!4522.10N/01814.60EIiGate&W2 DJAKOVO CRLNet.108 http://elco.hr
2020-01-26 04:45:089A3XK>APMI06,TCPIP*,qAC,APRSFI-I1:T#018,074,044,016,23122,078,00000000
2020-01-26 04:40:089A3XK>APMI06,TCPIP*,qAC,APRSFI-I1:T#017,072,044,017,23121,078,00000000
2020-01-26 04:39:349A3XK>BEACON,WIDE1-1,qAR,HG2PKB-1:Power 9W Gain 3dB Height 240m Ant omni
2020-01-26 04:35:089A3XK>APMI06,TCPIP*,qAC,APRSFI-I1:T#016,071,043,015,23123,078,00000000
2020-01-26 04:30:089A3XK>APMI06,TCPIP*,qAC,APRSFI-I1:T#015,080,045,020,23122,078,00000000
2020-01-26 04:29:339A3XK>BEACON,TCPIP*,qAC,APRSFI-I1:Power 9W Gain 3dB Height 240m Ant omni
2020-01-26 04:29:249A3XK>BEACON,WIDE1-1,qAR,E79XZA-10:CRLNet.108 - SysOp 9a3XK & 9a7kxp-Internet via DJWIRELES http://djw.hr/
2020-01-26 04:29:189A3XK>APMI06,TCPIP*,qAC,APRSFI-I1:>http://crlnet.it - WX3IN1 Plus 2.0 - v1.13 - 2.1C - 12.2V
2020-01-26 04:29:13!4522.10N/01814.60EIiGate&W2 DJAKOVO CRLNet.108 http://elco.hr9A3XK>APMI06,TCPIP*,qAC,APRSFI-I1:!4522.10N/01814.60EIiGate&W2 DJAKOVO CRLNet.108 http://elco.hr
2020-01-26 04:29:089A3XK>APMI06,WIDE1-1,qAR,E79XZA-10:T#014,075,045,020,23124,078,00000000
2020-01-26 04:25:089A3XK>APMI06,TCPIP*,qAC,APRSFI-I1:T#013,070,045,019,23124,078,00000000
2020-01-26 04:24:14!4522.10N/01814.60EIiGate&W2 DJAKOVO CRLNet.108 http://elco.hr9A3XK>APMI06,WIDE2-2,qAR,E79XZA-10:!4522.10N/01814.60EIiGate&W2 DJAKOVO CRLNet.108 http://elco.hr
2020-01-26 04:20:089A3XK>APMI06,TCPIP*,qAC,APRSFI-I1:T#012,062,044,017,23123,078,00000000
2020-01-26 04:19:339A3XK>BEACON,WIDE1-1,qAR,E79XZA-10:Power 9W Gain 3dB Height 240m Ant omni
2020-01-26 04:15:089A3XK>APMI06,TCPIP*,qAC,APRSFI-I1:T#011,050,045,007,23121,078,00000000
2020-01-26 04:10:089A3XK>APMI06,TCPIP*,qAC,APRSFI-I1:T#010,047,046,009,23121,078,00000000
2020-01-26 04:09:349A3XK>BEACON,WIDE1-1,qAR,E79XZA-10:Power 9W Gain 3dB Height 240m Ant omni
2020-01-26 04:05:089A3XK>APMI06,TCPIP*,qAC,APRSFI-I1:T#009,086,048,021,23125,078,00000000
2020-01-26 04:00:089A3XK>APMI06,TCPIP*,qAC,APRSFI-I1:T#008,080,049,020,23124,078,00000000
2020-01-26 04:00:089A3XK>APMI06,WIDE1-1,qAR,E79XZA-10:T#007,080,049,020,23124,078,00000000
2020-01-26 03:59:509A3XK>APMI06,HG2PKB-1*,qAR,HG4PND-1:>http://crlnet.it - WX3IN1 Plus 2.0 - v1.13 - 2.1C - 12.2V
2020-01-26 03:59:339A3XK>BEACON,TCPIP*,qAC,APRSFI-I1:Power 9W Gain 3dB Height 240m Ant omni
2020-01-26 03:59:249A3XK>BEACON,WIDE1-1,qAR,E79XZA-10:CRLNet.108 - SysOp 9a3XK & 9a7kxp-Internet via DJWIRELES http://djw.hr/
2020-01-26 03:59:189A3XK>APMI06,TCPIP*,qAC,APRSFI-I1:>http://crlnet.it - WX3IN1 Plus 2.0 - v1.13 - 2.1C - 12.2V
2020-01-26 03:59:13!4522.10N/01814.60EIiGate&W2 DJAKOVO CRLNet.108 http://elco.hr9A3XK>APMI06,TCPIP*,qAC,APRSFI-I1:!4522.10N/01814.60EIiGate&W2 DJAKOVO CRLNet.108 http://elco.hr
2020-01-26 03:55:089A3XK>APMI06,TCPIP*,qAC,APRSFI-I1:T#006,051,049,009,23123,078,00000000
2020-01-26 03:50:089A3XK>APMI06,TCPIP*,qAC,APRSFI-I1:T#005,055,049,015,23124,078,00000000
2020-01-26 03:49:349A3XK>BEACON,WIDE1-1,qAR,HG6PGA-10:Power 9W Gain 3dB Height 240m Ant omni
2020-01-26 03:45:089A3XK>APMI06,TCPIP*,qAC,APRSFI-I1:T#004,073,050,020,23125,078,00000000
2020-01-26 03:40:089A3XK>APMI06,TCPIP*,qAC,APRSFI-I1:T#003,094,053,029,23122,078,00000000
2020-01-26 03:39:349A3XK>BEACON,WIDE1-1,qAR,E79XZA-10:Power 9W Gain 3dB Height 240m Ant omni
2020-01-26 03:35:089A3XK>APMI06,TCPIP*,qAC,APRSFI-I1:T#002,081,054,025,23122,078,00000000
2020-01-26 03:34:14!4522.10N/01814.60EIiGate&W2 DJAKOVO CRLNet.108 http://elco.hr9A3XK>APMI06,WIDE2-2,qAR,E79XZA-10:!4522.10N/01814.60EIiGate&W2 DJAKOVO CRLNet.108 http://elco.hr
2020-01-26 03:31:089A3XK>APMI06,WIDE1-1,qAR,E79XZA-10:T#001,067,054,016,23116,078,00000000
2020-01-26 03:30:089A3XK>APMI06,TCPIP*,qAC,APRSFI-I1:T#000,065,054,018,23114,078,00000000
2020-01-26 03:29:339A3XK>BEACON,TCPIP*,qAC,APRSFI-I1:Power 9W Gain 3dB Height 240m Ant omni
2020-01-26 03:29:249A3XK>BEACON,WIDE1-1,qAR,HG6PGA-10:CRLNet.108 - SysOp 9a3XK & 9a7kxp-Internet via DJWIRELES http://djw.hr/
2020-01-26 03:29:189A3XK>APMI06,TCPIP*,qAC,APRSFI-I1:>http://crlnet.it - WX3IN1 Plus 2.0 - v1.13 - 2.1C - 12.2V
2020-01-26 03:29:13!4522.10N/01814.60EIiGate&W2 DJAKOVO CRLNet.108 http://elco.hr9A3XK>APMI06,TCPIP*,qAC,APRSFI-I1:!4522.10N/01814.60EIiGate&W2 DJAKOVO CRLNet.108 http://elco.hr
2020-01-26 03:25:089A3XK>APMI06,TCPIP*,qAC,APRSFI-I1:T#255,072,057,024,23115,078,00000000
2020-01-26 03:20:089A3XK>APMI06,TCPIP*,qAC,APRSFI-I1:T#254,079,058,032,23113,078,00000000
2020-01-26 03:19:349A3XK>BEACON,WIDE1-1,qAR,E79XZA-10:Power 9W Gain 3dB Height 240m Ant omni
2020-01-26 03:15:089A3XK>APMI06,TCPIP*,qAC,APRSFI-I1:T#253,083,060,030,23107,078,00000000
2020-01-26 03:10:089A3XK>APMI06,TCPIP*,qAC,APRSFI-I1:T#252,085,060,028,23101,078,00000000
2020-01-26 03:09:349A3XK>BEACON,WIDE1-1,qAR,E79XZA-10:Power 9W Gain 3dB Height 240m Ant omni
2020-01-26 03:05:089A3XK>APMI06,TCPIP*,qAC,APRSFI-I1:T#251,096,061,029,23096,078,00000000
2020-01-26 03:02:089A3XK>APMI06,WIDE1-1,qAR,E79XZA-10:T#250,091,062,024,23093,078,00000000
2020-01-26 03:00:089A3XK>APMI06,TCPIP*,qAC,APRSFI-I1:T#249,067,060,015,23090,078,00000000
2020-01-26 02:59:339A3XK>BEACON,TCPIP*,qAC,APRSFI-I1:Power 9W Gain 3dB Height 240m Ant omni
2020-01-26 02:59:269A3XK>BEACON,YU0XFG-1*,WIDE1*,qAR,YU0XBV-1:CRLNet.108 - SysOp 9a3XK & 9a7kxp-Internet via DJWIRELES http://djw.hr/
2020-01-26 02:59:189A3XK>APMI06,TCPIP*,qAC,APRSFI-I1:>http://crlnet.it - WX3IN1 Plus 2.0 - v1.13 - 2.1C - 12.2V
2020-01-26 02:59:13!4522.10N/01814.60EIiGate&W2 DJAKOVO CRLNet.108 http://elco.hr9A3XK>APMI06,TCPIP*,qAC,APRSFI-I1:!4522.10N/01814.60EIiGate&W2 DJAKOVO CRLNet.108 http://elco.hr
2020-01-26 02:56:589A3XK>APMI06,TCPIP*,qAC,APRSFI-I1::9A3XK :BITS.11111111,DJAKOVO 5' Stats.
2020-01-26 02:56:589A3XK>APMI06,TCPIP*,qAC,APRSFI-I1::9A3XK :EQNS.0,1,0,0,10,0,0,1,0,0,0.001,0,0,1,0
2020-01-26 02:56:589A3XK>APMI06,TCPIP*,qAC,APRSFI-I1::9A3XK :UNIT.Pkt,Pkt,Pkt,Pcnt,Pcnt,On,On,On,On,Hi,Hi,Hi,Hi
2020-01-26 02:56:589A3XK>APMI06,TCPIP*,qAC,APRSFI-I1::9A3XK :PARM.Rx10m,Rx1h,Dg10m,DgR,Eff,O1,O2,O3,O4,I1,I2,I3,I4
2020-01-26 02:56:239A3XK>BEACON,TCPIP*,qAC,APRSFI-I1:CRLNet.108 - SysOp 9a3XK & 9a7kxp-Internet via DJWIRELES http://djw.hr/
2020-01-26 02:55:089A3XK>APMI06,TCPIP*,qAC,APRSFI-I1:T#248,062,061,017,23089,078,00000000
2020-01-26 02:50:089A3XK>APMI06,TCPIP*,qAC,APRSFI-I1:T#247,094,063,026,23090,078,00000000
2020-01-26 02:49:349A3XK>BEACON,WIDE1-1,qAR,E79XZA-10:Power 9W Gain 3dB Height 240m Ant omni
2020-01-26 02:45:089A3XK>APMI06,TCPIP*,qAC,APRSFI-I1:T#246,105,063,027,23086,078,00000000
2020-01-26 02:44:15!4522.10N/01814.60EIiGate&W2 DJAKOVO CRLNet.108 http://elco.hr9A3XK>APMI06,WIDE2-2,qAR,E79XZA-10:!4522.10N/01814.60EIiGate&W2 DJAKOVO CRLNet.108 http://elco.hr
2020-01-26 02:40:089A3XK>APMI06,TCPIP*,qAC,APRSFI-I1:T#245,095,062,027,23084,078,00000000
2020-01-26 02:39:349A3XK>BEACON,WIDE1-1,qAR,HG2PKB-1:Power 9W Gain 3dB Height 240m Ant omni
2020-01-26 02:35:089A3XK>APMI06,TCPIP*,qAC,APRSFI-I1:T#244,109,061,028,23083,078,00000000
2020-01-26 02:33:099A3XK>APMI06,WIDE1-1,qAR,E79XZA-10:T#243,103,060,025,23082,078,00000000
2020-01-26 02:30:089A3XK>APMI06,TCPIP*,qAC,APRSFI-I1:T#242,092,059,028,23080,078,00000000
2020-01-26 02:30:009A3XK>APMI06,WIDE1-1,qAR,E79XZA-10::9A3XK :EQNS.0,1,0,0,10,0,0,1,0,0,0.001,0,0,1,0
2020-01-26 02:30:009A3XK>APMI06,WIDE1-1,qAR,E79XZA-10::9A3XK :BITS.11111111,DJAKOVO 5' Stats.
2020-01-26 02:29:599A3XK>APMI06,WIDE1-1,qAR,E79XZA-10::9A3XK :PARM.Rx10m,Rx1h,Dg10m,DgR,Eff,O1,O2,O3,O4,I1,I2,I3,I4
2020-01-26 02:29:599A3XK>APMI06,WIDE1-1,qAR,E79XZA-10::9A3XK :UNIT.Pkt,Pkt,Pkt,Pcnt,Pcnt,On,On,On,On,Hi,Hi,Hi,Hi
2020-01-26 02:29:339A3XK>BEACON,TCPIP*,qAC,APRSFI-I1:Power 9W Gain 3dB Height 240m Ant omni
2020-01-26 02:29:249A3XK>BEACON,WIDE1-1,qAR,E79XZA-10:CRLNet.108 - SysOp 9a3XK & 9a7kxp-Internet via DJWIRELES http://djw.hr/
2020-01-26 02:29:189A3XK>APMI06,TCPIP*,qAC,APRSFI-I1:>http://crlnet.it - WX3IN1 Plus 2.0 - v1.13 - 2.1C - 12.2V
2020-01-26 02:29:14!4522.10N/01814.60EIiGate&W2 DJAKOVO CRLNet.108 http://elco.hr9A3XK>APMI06,TCPIP*,qAC,APRSFI-I1:!4522.10N/01814.60EIiGate&W2 DJAKOVO CRLNet.108 http://elco.hr
2020-01-26 02:25:089A3XK>APMI06,TCPIP*,qAC,APRSFI-I1:T#241,098,058,040,23080,078,00000000
2020-01-26 02:20:089A3XK>APMI06,TCPIP*,qAC,APRSFI-I1:T#240,097,057,040,23075,078,00000000
2020-01-26 02:19:14!4522.10N/01814.60EIiGate&W2 DJAKOVO CRLNet.108 http://elco.hr9A3XK>APMI06,WIDE2-2,qAR,E79XZA-10:!4522.10N/01814.60EIiGate&W2 DJAKOVO CRLNet.108 http://elco.hr
2020-01-26 02:15:089A3XK>APMI06,TCPIP*,qAC,APRSFI-I1:T#239,090,053,034,23063,078,00000000
2020-01-26 02:10:089A3XK>APMI06,TCPIP*,qAC,APRSFI-I1:T#238,092,051,038,23056,078,00000000
2020-01-26 02:09:349A3XK>BEACON,WIDE1-1,qAR,E79XZA-10:Power 9W Gain 3dB Height 240m Ant omni
2020-01-26 02:05:089A3XK>APMI06,TCPIP*,qAC,APRSFI-I1:T#237,090,049,030,23048,078,00000000
2020-01-26 02:04:099A3XK>APMI06,WIDE1-1,qAR,E79XZA-10:T#236,086,049,027,23046,078,00000000
2020-01-26 02:00:089A3XK>APMI06,TCPIP*,qAC,APRSFI-I1:T#235,087,048,027,23039,078,00000000
2020-01-26 01:59:339A3XK>BEACON,TCPIP*,qAC,APRSFI-I1:Power 9W Gain 3dB Height 240m Ant omni
2020-01-26 01:59:189A3XK>APMI06,TCPIP*,qAC,APRSFI-I1:>http://crlnet.it - WX3IN1 Plus 2.0 - v1.13 - 2.1C - 12.2V
2020-01-26 01:59:13!4522.10N/01814.60EIiGate&W2 DJAKOVO CRLNet.108 http://elco.hr9A3XK>APMI06,TCPIP*,qAC,APRSFI-I1:!4522.10N/01814.60EIiGate&W2 DJAKOVO CRLNet.108 http://elco.hr
2020-01-26 01:55:089A3XK>APMI06,TCPIP*,qAC,APRSFI-I1:T#234,090,047,028,23038,078,00000000
2020-01-26 01:54:14!4522.10N/01814.60EIiGate&W2 DJAKOVO CRLNet.108 http://elco.hr9A3XK>APMI06,WIDE2-2,qAR,E79XZA-10:!4522.10N/01814.60EIiGate&W2 DJAKOVO CRLNet.108 http://elco.hr
2020-01-26 01:50:089A3XK>APMI06,TCPIP*,qAC,APRSFI-I1:T#233,086,045,028,23035,078,00000000
2020-01-26 01:49:349A3XK>BEACON,WIDE1-1,qAR,E79XZA-10:Power 9W Gain 3dB Height 240m Ant omni
2020-01-26 01:45:089A3XK>APMI06,TCPIP*,qAC,APRSFI-I1:T#232,082,044,023,23031,078,00000000
2020-01-26 01:40:089A3XK>APMI06,TCPIP*,qAC,APRSFI-I1:T#231,077,044,027,23026,078,00000000
2020-01-26 01:39:349A3XK>BEACON,WIDE1-1,qAR,E79XZA-10:Power 9W Gain 3dB Height 240m Ant omni
2020-01-26 01:35:089A3XK>APMI06,TCPIP*,qAC,APRSFI-I1:T#230,082,046,035,23027,078,00000000
2020-01-26 01:35:089A3XK>APMI06,WIDE1-1,qAR,HG2PKB-1:T#229,082,046,035,23027,078,00000000
2020-01-26 01:30:089A3XK>APMI06,TCPIP*,qAC,APRSFI-I1:T#228,074,047,030,23019,078,00000000
2020-01-26 01:29:339A3XK>BEACON,TCPIP*,qAC,APRSFI-I1:Power 9W Gain 3dB Height 240m Ant omni
2020-01-26 01:29:249A3XK>BEACON,WIDE1-1,qAR,E79XZA-10:CRLNet.108 - SysOp 9a3XK & 9a7kxp-Internet via DJWIRELES http://djw.hr/
2020-01-26 01:29:189A3XK>APMI06,TCPIP*,qAC,APRSFI-I1:>http://crlnet.it - WX3IN1 Plus 2.0 - v1.13 - 2.0C - 12.2V
2020-01-26 01:29:13!4522.10N/01814.60EIiGate&W2 DJAKOVO CRLNet.108 http://elco.hr9A3XK>APMI06,TCPIP*,qAC,APRSFI-I1:!4522.10N/01814.60EIiGate&W2 DJAKOVO CRLNet.108 http://elco.hr
2020-01-26 01:25:089A3XK>APMI06,TCPIP*,qAC,APRSFI-I1:T#227,041,047,011,23010,078,00000000
2020-01-26 01:20:089A3XK>APMI06,TCPIP*,qAC,APRSFI-I1:T#226,039,049,009,23006,078,00000000
2020-01-26 01:19:349A3XK>BEACON,WIDE1-1,qAR,E79XZA-10:Power 9W Gain 3dB Height 240m Ant omni
2020-01-26 01:15:089A3XK>APMI06,TCPIP*,qAC,APRSFI-I1:T#225,062,053,012,23006,078,00000000
2020-01-26 01:10:089A3XK>APMI06,TCPIP*,qAC,APRSFI-I1:T#224,078,056,020,23006,078,00000000
2020-01-26 01:09:349A3XK>BEACON,WIDE1-1,qAR,E79XZA-10:Power 9W Gain 3dB Height 240m Ant omni
2020-01-26 01:06:099A3XK>APMI06,WIDE1-1,qAR,E79XZA-10:T#223,073,057,017,23007,078,00000000
2020-01-26 01:05:089A3XK>APMI06,TCPIP*,qAC,APRSFI-I1:T#222,070,057,018,23008,078,00000000
2020-01-26 01:04:14!4522.10N/01814.60EIiGate&W2 DJAKOVO CRLNet.108 http://elco.hr9A3XK>APMI06,WIDE2-2,qAR,E79XZA-10:!4522.10N/01814.60EIiGate&W2 DJAKOVO CRLNet.108 http://elco.hr
2020-01-26 01:00:089A3XK>APMI06,TCPIP*,qAC,APRSFI-I1:T#221,054,058,013,23004,078,00000000
2020-01-26 00:59:339A3XK>BEACON,TCPIP*,qAC,APRSFI-I1:Power 9W Gain 3dB Height 240m Ant omni
2020-01-26 00:59:249A3XK>BEACON,WIDE1-1,qAR,E79XZA-10:CRLNet.108 - SysOp 9a3XK & 9a7kxp-Internet via DJWIRELES http://djw.hr/
2020-01-26 00:59:189A3XK>APMI06,TCPIP*,qAC,APRSFI-I1:>http://crlnet.it - WX3IN1 Plus 2.0 - v1.13 - 2.1C - 12.2V
2020-01-26 00:59:13!4522.10N/01814.60EIiGate&W2 DJAKOVO CRLNet.108 http://elco.hr9A3XK>APMI06,TCPIP*,qAC,APRSFI-I1:!4522.10N/01814.60EIiGate&W2 DJAKOVO CRLNet.108 http://elco.hr
2020-01-26 00:55:089A3XK>APMI06,TCPIP*,qAC,APRSFI-I1:T#220,064,060,013,23007,078,00000000
2020-01-26 00:50:089A3XK>APMI06,TCPIP*,qAC,APRSFI-I1:T#219,070,061,023,23005,078,00000000
2020-01-26 00:49:349A3XK>BEACON,WIDE1-1,qAR,E79XZA-10:Power 9W Gain 3dB Height 240m Ant omni
2020-01-26 00:45:089A3XK>APMI06,TCPIP*,qAC,APRSFI-I1:T#218,103,063,035,23007,078,00000000
2020-01-26 00:40:089A3XK>APMI06,TCPIP*,qAC,APRSFI-I1:T#217,105,061,038,23000,078,00000000
2020-01-26 00:39:349A3XK>BEACON,WIDE1-1,qAR,E79XZA-10:Power 9W Gain 3dB Height 240m Ant omni
2020-01-26 00:39:14!4522.10N/01814.60EIiGate&W2 DJAKOVO CRLNet.108 http://elco.hr9A3XK>APMI06,WIDE2-2,qAR,E79XZA-10:!4522.10N/01814.60EIiGate&W2 DJAKOVO CRLNet.108 http://elco.hr
2020-01-26 00:37:099A3XK>APMI06,WIDE1-1,qAR,HG2PKB-1:T#216,102,060,039,22999,078,00000000
2020-01-26 00:35:089A3XK>APMI06,TCPIP*,qAC,APRSFI-I1:T#215,098,058,037,22996,078,00000000
2020-01-26 00:30:089A3XK>APMI06,TCPIP*,qAC,APRSFI-I1:T#214,091,055,034,22987,078,00000000
2020-01-26 00:29:339A3XK>BEACON,TCPIP*,qAC,APRSFI-I1:Power 9W Gain 3dB Height 240m Ant omni
2020-01-26 00:29:259A3XK>BEACON,WIDE1-1,qAR,E79XZA-10:CRLNet.108 - SysOp 9a3XK & 9a7kxp-Internet via DJWIRELES http://djw.hr/
2020-01-26 00:29:189A3XK>APMI06,TCPIP*,qAC,APRSFI-I1:>http://crlnet.it - WX3IN1 Plus 2.0 - v1.13 - 2.1C - 12.2V
2020-01-26 00:29:13!4522.10N/01814.60EIiGate&W2 DJAKOVO CRLNet.108 http://elco.hr9A3XK>APMI06,TCPIP*,qAC,APRSFI-I1:!4522.10N/01814.60EIiGate&W2 DJAKOVO CRLNet.108 http://elco.hr
2020-01-26 00:25:089A3XK>APMI06,TCPIP*,qAC,APRSFI-I1:T#213,094,052,031,22981,078,00000000
2020-01-26 00:20:089A3XK>APMI06,TCPIP*,qAC,APRSFI-I1:T#212,097,052,034,22976,078,00000000
2020-01-26 00:19:349A3XK>BEACON,WIDE1-1,qAR,E79XZA-10:Power 9W Gain 3dB Height 240m Ant omni
2020-01-26 00:15:089A3XK>APMI06,TCPIP*,qAC,APRSFI-I1:T#211,097,050,036,22972,078,00000000
2020-01-26 00:14:14!4522.10N/01814.60EIiGate&W2 DJAKOVO CRLNet.108 http://elco.hr9A3XK>APMI06,WIDE2-2,qAR,E79XZA-10:!4522.10N/01814.60EIiGate&W2 DJAKOVO CRLNet.108 http://elco.hr
2020-01-26 00:09:349A3XK>BEACON,WIDE1-1,qAR,E79XZA-10:Power 9W Gain 3dB Height 240m Ant omni
2020-01-26 00:08:099A3XK>APMI06,WIDE1-1,qAR,E79XZA-10:T#209,100,047,043,22964,078,00000000
2020-01-26 00:05:089A3XK>APMI06,TCPIP*,qAC,APRSFI-I1:T#208,096,047,035,22957,078,00000000
2020-01-26 00:00:089A3XK>APMI06,TCPIP*,qAC,APRSFI-I1:T#207,084,046,033,22950,078,00000000